Cooperstown, ND

5:04 PM CDT on April 26, 2017 (GMT -0500)
Cooperstown

Weather History for KS32 - November, 2012

Change the Weather History Date:

Friday, November 23, 2012

  Actual Average (KJMS) Record (KJMS)
Temperature  
Mean Temperature 8 °F -  
Max Temperature 14 °F 28 °F 59 °F (1942)
Min Temperature 1 °F 13 °F -16 °F (1951)
Degree Days  
Heating Degree Days 58    
Moisture  
Dew Point 6 °F    
Average Humidity 88    
Maximum Humidity 100    
Minimum Humidity 79    
Precipitation  
Precipitation 0.13 in - - ()
Sea Level Pressure  
Sea Level Pressure 30.40 in    
Wind  
Wind Speed 17 mph (NNW)    
Max Wind Speed 28 mph    
Max Gust Speed 36 mph    
Visibility 9 miles    
Events Rain , Snow    
Averages and records for this station are not official NWS values.
T = Trace of Precipitation, MM = Missing Value Source: NWS Daily Summary

Daily Weather History Graph

Daily Weather History Graph

Search for Another Location

Airport or City:

Trip Planner

Search our weather history database for the weather conditions in past years. The results will help you decide how hot, cold, wet, or windy it might be!

Date:

Astronomy

Nov. 23, 2012 Rise Set
Actual Time 7:49 AM CST 4:48 PM CST
Civil Twilight 7:14 AM CST 5:22 PM CST
Nautical Twilight 6:36 AM CST 6:00 PM CST
Astronomical Twilight 6:00 AM CST 6:37 PM CST
Moon 2:18 PM CST (11/23) 2:53 AM CST (11/23)
Length of Visible Light 10h 07m
Length of Day
8h 59m
Waxing Gibbous, 80% of the Moon is Illuminated
Nov 23
Waxing Gibbous
Nov 28
Full
Dec 6
Last Quarter
Dec 13
New
Dec 19
First Quarter

Hourly Weather History & Observations

Time (CST) Temp. Windchill Dew Point Humidity Pressure Visibility Wind Dir Wind Speed Gust Speed Precip Events Conditions
12:15 AM 14.0 °F -5.5 °F 10.4 °F 86% 30.29 in 10.0 mi NNW 25.3 mph 33.4 mph N/A   Overcast
12:35 AM 14.0 °F -4.7 °F 10.4 °F 86% 30.30 in 10.0 mi NNW 23.0 mph 35.7 mph N/A   Overcast
12:55 AM 14.0 °F -6.2 °F 8.6 °F 79% 30.30 in 9.0 mi NNW 27.6 mph 35.7 mph N/A Rain Light Freezing Rain
1:15 AM 12.2 °F -8.2 °F 8.6 °F 85% 30.32 in 10.0 mi NNW 26.5 mph 31.1 mph N/A Snow Light Snow
1:35 AM 12.2 °F -7.1 °F 8.6 °F 85% 30.32 in 10.0 mi NNW 23.0 mph 33.4 mph N/A   Overcast
1:55 AM 12.2 °F -7.5 °F 8.6 °F 85% 30.34 in 10.0 mi NNW 24.2 mph 29.9 mph N/A   Overcast
2:15 AM 12.2 °F -7.5 °F 8.6 °F 85% 30.35 in 10.0 mi NNW 24.2 mph 33.4 mph N/A   Overcast
2:35 AM 12.2 °F -6.7 °F 8.6 °F 85% 30.36 in 10.0 mi NNW 21.9 mph 27.6 mph N/A Snow Light Snow
2:55 AM 12.2 °F -7.5 °F 8.6 °F 85% 30.37 in 10.0 mi NNW 24.2 mph 29.9 mph N/A Snow Light Snow
3:15 AM 12.2 °F -5.8 °F 8.6 °F 85% 30.38 in 10.0 mi NW 19.6 mph 28.8 mph N/A   Overcast
3:35 AM 12.2 °F -6.7 °F 8.6 °F 85% 30.38 in 10.0 mi NW 21.9 mph 29.9 mph N/A Snow Light Snow
3:55 AM 12.2 °F -5.3 °F 8.6 °F 85% 30.39 in 10.0 mi NW 18.4 mph 28.8 mph N/A Snow Light Snow
4:15 AM 10.4 °F -9.1 °F 8.6 °F 92% 30.39 in 10.0 mi NNW 21.9 mph - N/A Rain Light Freezing Rain
4:35 AM 10.4 °F -8.6 °F 6.8 °F 85% 30.39 in 10.0 mi NNW 20.7 mph 27.6 mph N/A Snow Light Snow
4:55 AM 10.4 °F -8.6 °F 6.8 °F 85% 30.40 in 10.0 mi NNW 20.7 mph 24.2 mph N/A   Overcast
5:15 AM 10.4 °F -6.6 °F 6.8 °F 85% 30.41 in 10.0 mi NNW 16.1 mph 24.2 mph N/A   Overcast
5:35 AM 10.4 °F -7.2 °F 6.8 °F 85% 30.41 in 10.0 mi NNW 17.3 mph 25.3 mph N/A Rain Light Freezing Rain
5:55 AM 10.4 °F -6.6 °F 8.6 °F 92% 30.41 in 10.0 mi NNW 16.1 mph 23.0 mph N/A Snow Light Snow
6:15 AM 10.4 °F -6.0 °F 6.8 °F 85% 30.42 in 10.0 mi NW 15.0 mph 20.7 mph N/A Snow Light Snow
6:35 AM 10.4 °F -5.4 °F 6.8 °F 85% 30.43 in 10.0 mi NW 13.8 mph 18.4 mph N/A   Overcast
6:55 AM 10.4 °F -8.2 °F 6.8 °F 85% 30.42 in 10.0 mi NNW 19.6 mph 23.0 mph N/A   Mostly Cloudy
7:15 AM 10.4 °F -6.6 °F 6.8 °F 85% 30.42 in 10.0 mi NNW 16.1 mph 23.0 mph N/A   Overcast
7:35 AM 10.4 °F -6.0 °F 6.8 °F 85% 30.43 in 10.0 mi NNW 15.0 mph - N/A Snow Light Snow
7:55 AM 10.4 °F -4.8 °F 8.6 °F 92% 30.44 in 2.5 mi NNW 12.7 mph 20.7 mph 0.04 in Snow Light Snow
8:15 AM 10.4 °F -5.4 °F 8.6 °F 92% 30.44 in 5.0 mi NW 13.8 mph 18.4 mph 0.01 in Snow Light Snow
8:35 AM 10.4 °F -5.4 °F 6.8 °F 85% 30.44 in 5.0 mi NW 13.8 mph - 0.02 in Snow Light Snow
8:55 AM 10.4 °F -4.8 °F 6.8 °F 85% 30.45 in 2.5 mi NNW 12.7 mph 17.3 mph 0.06 in Snow Light Snow
9:15 AM 10.4 °F -6.0 °F 6.8 °F 85% 30.45 in 6.0 mi NW 15.0 mph 18.4 mph N/A Snow Light Snow
9:35 AM 10.4 °F -7.2 °F 6.8 °F 85% 30.45 in 8.0 mi NNW 17.3 mph - N/A Snow Light Snow
9:55 AM 10.4 °F -7.7 °F 6.8 °F 85% 30.46 in 9.0 mi NW 18.4 mph - N/A Snow Light Snow
10:15 AM 10.4 °F -6.6 °F 6.8 °F 85% 30.46 in 6.0 mi NNW 16.1 mph - N/A Snow Light Snow
10:35 AM 10.4 °F -6.6 °F 6.8 °F 85% 30.46 in 10.0 mi NNW 16.1 mph 20.7 mph N/A Snow Light Snow
10:55 AM 10.4 °F -7.7 °F 6.8 °F 85% 30.47 in 10.0 mi NW 18.4 mph - N/A   Overcast
11:15 AM 10.4 °F -6.0 °F 6.8 °F 85% 30.47 in 9.0 mi NNW 15.0 mph - N/A Rain Light Freezing Rain
11:35 AM 10.4 °F -5.4 °F 6.8 °F 85% 30.46 in 10.0 mi NNW 13.8 mph 18.4 mph N/A   Overcast
11:55 AM 10.4 °F -4.1 °F 6.8 °F 85% 30.46 in 7.0 mi NW 11.5 mph - N/A Snow Light Snow
12:15 PM 10.4 °F -4.8 °F 6.8 °F 85% 30.46 in 6.0 mi NW 12.7 mph 19.6 mph N/A Snow Light Snow
12:35 PM 12.2 °F -3.1 °F 8.6 °F 85% 30.45 in 4.0 mi NW 13.8 mph - 0.02 in Snow Light Snow
12:55 PM 12.2 °F -3.1 °F 8.6 °F 85% 30.44 in 7.0 mi NNW 13.8 mph - 0.03 in Snow Light Snow
1:15 PM 10.4 °F -5.4 °F 6.8 °F 85% 30.44 in 9.0 mi NNW 13.8 mph - N/A Snow Light Snow
1:35 PM 10.4 °F -6.0 °F 6.8 °F 85% 30.43 in 10.0 mi NW 15.0 mph - N/A   Overcast
1:55 PM 10.4 °F -4.1 °F 6.8 °F 85% 30.43 in 7.0 mi NNW 11.5 mph - N/A Snow Light Snow
2:15 PM 10.4 °F -4.1 °F 6.8 °F 85% 30.43 in 10.0 mi NNW 11.5 mph - N/A   Overcast
2:35 PM 12.2 °F -1.8 °F 8.6 °F 85% 30.43 in 7.0 mi NNW 11.5 mph - N/A Snow Light Snow
2:55 PM 10.4 °F -2.4 °F 6.8 °F 85% 30.42 in 9.0 mi NNW 9.2 mph - N/A Snow Light Snow
3:15 PM 10.4 °F -4.1 °F 8.6 °F 92% 30.42 in 10.0 mi NNW 11.5 mph - N/A Snow Light Snow
3:35 PM 10.4 °F -2.4 °F 6.8 °F 85% 30.43 in 10.0 mi NNW 9.2 mph - N/A   Overcast
3:55 PM 10.4 °F -3.3 °F 6.8 °F 85% 30.42 in 10.0 mi NNW 10.4 mph - N/A   Mostly Cloudy
4:15 PM 10.4 °F -3.3 °F 6.8 °F 85% 30.42 in 10.0 mi North 10.4 mph - N/A   Mostly Cloudy
4:35 PM 10.4 °F -2.4 °F 6.8 °F 85% 30.42 in 10.0 mi North 9.2 mph - N/A   Mostly Cloudy
4:55 PM 8.6 °F -3.7 °F 6.8 °F 92% 30.41 in 10.0 mi NNW 8.1 mph - N/A   Partly Cloudy
5:15 PM 6.8 °F -3.5 °F 5.0 °F 92% 30.42 in 10.0 mi NNW 5.8 mph - N/A   Clear
5:35 PM 6.8 °F -2.0 °F 3.2 °F 85% 30.42 in 10.0 mi NW 4.6 mph - N/A   Clear
5:55 PM 5.0 °F -5.6 °F 3.2 °F 92% 30.42 in 10.0 mi NNW 5.8 mph - N/A   Clear
6:15 PM 5.0 °F -2.1 °F 3.2 °F 92% 30.41 in 10.0 mi North 3.5 mph - N/A   Clear
6:35 PM 6.8 °F -0.1 °F 5.0 °F 92% 30.40 in 10.0 mi North 3.5 mph - N/A   Clear
6:55 PM 5.0 °F - 3.2 °F 92% 30.40 in 10.0 mi Calm Calm - N/A   Clear
7:15 PM 5.0 °F - 3.2 °F 92% 30.39 in 10.0 mi Calm Calm - N/A   Clear
7:35 PM 5.0 °F - 3.2 °F 92% 30.38 in 10.0 mi Calm Calm - N/A   Clear
7:55 PM 3.2 °F -6.2 °F 1.4 °F 92% 30.37 in 10.0 mi ENE 4.6 mph - N/A   Clear
8:15 PM 3.2 °F - 1.4 °F 92% 30.37 in 10.0 mi Calm Calm - N/A   Clear
8:35 PM 3.2 °F -4.2 °F 1.4 °F 92% 30.37 in 10.0 mi WSW 3.5 mph - N/A   Clear
8:55 PM 3.2 °F - 1.4 °F 92% 30.37 in 10.0 mi Calm Calm - N/A   Clear
9:15 PM 3.2 °F - 1.4 °F 92% 30.36 in 10.0 mi Calm Calm - N/A   Clear
9:35 PM 3.2 °F - 1.4 °F 92% 30.35 in 10.0 mi Calm Calm - N/A   Clear
9:55 PM 1.4 °F - 1.4 °F 100% 30.35 in 10.0 mi Calm Calm - N/A   Clear
10:15 PM 3.2 °F -4.2 °F 1.4 °F 92% 30.33 in 10.0 mi ENE 3.5 mph - N/A   Clear
10:35 PM 3.2 °F -6.2 °F 1.4 °F 92% 30.32 in 10.0 mi East 4.6 mph - N/A   Clear
10:55 PM 1.4 °F -6.2 °F 1.4 °F 100% 30.32 in 10.0 mi SSE 3.5 mph - N/A   Clear
11:15 PM 1.4 °F -6.2 °F -0.4 °F 92% 30.31 in 10.0 mi SE 3.5 mph - N/A   Clear
11:35 PM 1.4 °F -8.3 °F -0.4 °F 92% 30.30 in 10.0 mi ESE 4.6 mph - N/A   Clear
11:55 PM 1.4 °F -6.2 °F -0.4 °F 92% 30.30 in 10.0 mi South 3.5 mph - N/A   Clear